Wind_Speed
5 4 3 3 2 2 3 4 5 6 6 5 4 4 4 4 4 5 6 6 6 6 6 6 6 6 6 7 7 8 9 10 10 10 10 11 11 11 11 11 11 11 12 12 12 12 12 13 13
7 6 4 3 3 3 3 4 6 6 6 5 5 4 3 3 3 4 5 5 5 6 6 6 6 7 7 8 9 9 10 10 11 11 11 11 11 11 11 11 11 12 12 12 12 13 13 14 14
7 6 5 4 5 4 3 4 5 6 5 5 4 2 2 2 3 4 5 5 6 6 7 7 8 8 9 9 10 10 11 11 11 11 11 10 10 10 11 11 11 12 13 13 13 14 14 15 15
6 6 4 4 4 3 1 1 2 3 3 2 1 1 3 4 4 5 6 7 8 8 8 9 9 10 10 11 11 11 11 11 11 11 10 10 11 11 11 12 13 13 14 14 15 15 15 16 16
5 5 5 5 4 4 3 3 2 1 1 1 3 4 6 7 6 7 8 9 11 11 11 11 12 12 12 12 12 12 12 11 11 10 10 11 11 12 12 13 13 13 14 14 15 15 16 16 17
4 4 5 6 6 6 6 5 5 5 5 5 6 7 9 11 10 9 10 12 13 14 13 13 13 14 14 14 13 13 13 12 11 11 11 12 12 12 12 13 13 13 13 14 14 15 15 16 17
4 5 6 7 8 8 8 7 8 9 9 9 9 10 12 14 13 12 12 13 15 16 15 15 14 15 15 14 14 14 13 13 13 13 12 12 12 12 12 12 13 13 13 13 14 15 15 16 17
5 6 7 7 7 9 9 8 9 11 11 11 11 11 13 15 15 14 14 14 15 17 17 16 16 16 16 16 15 15 15 14 14 14 13 13 13 13 13 13 13 13 14 14 15 15 16 16 17
6 7 7 7 7 9 9 9 10 11 12 12 10 11 13 15 16 16 15 15 15 17 18 17 17 17 17 17 16 16 16 16 15 15 15 15 15 14 14 14 15 15 15 16 16 17 17 18 19
7 8 8 9 8 9 10 10 10 11 13 13 9 10 13 15 16 16 16 15 15 16 17 18 18 18 18 18 18 18 17 17 17 17 17 17 17 17 17 17 17 17 18 18 19 19 20 21 21
10 10 10 10 10 11 11 12 12 12 13 13 12 12 14 16 16 16 16 16 16 16 18 19 19 18 18 19 19 19 20 20 20 20 20 20 21 20 20 20 21 21 21 22 22 23 24 24 25
14 13 13 13 13 13 13 14 15 15 14 14 14 13 15 17 18 17 17 17 17 17 18 19 19 19 20 20 21 21 22 23 23 23 23 24 24 24 24 25 25 25 26 26 27 27 28 29 30
17 17 17 16 16 16 17 17 17 18 16 15 15 14 15 17 19 19 19 19 19 18 19 20 21 21 22 22 23 24 25 26 27 27 27 28 28 29 29 29 29 30 30 30 31 32 32 33 34
21 20 20 20 20 19 20 21 20 19 17 17 17 17 16 17 19 20 21 21 21 21 21 21 22 23 24 25 26 27 28 29 30 30 31 31 32 33 33 34 34 35 35 35 35 36 37 37 38
23 23 24 23 22 22 22 24 24 22 19 19 20 20 19 19 20 21 22 22 23 23 24 24 24 25 26 27 29 30 31 32 32 33 34 35 35 37 37 38 39 40 40 40 40 41 41 42 43
25 24 24 25 24 23 23 23 28 24 21 19 20 20 20 20 20 21 22 23 24 24 25 26 26 27 28 29 31 32 33 34 35 36 37 38 39 41 41 42 43 44 45 45 45 45 46 47 47
23 23 23 23 23 22 22 22 27 25 22 20 20 19 19 19 19 21 22 23 24 25 26 27 28 29 30 31 32 33 35 36 37 39 40 42 44 45 46 46 47 48 49 49 50 50 51 51 52
20 20 20 20 19 18 19 19 22 22 20 20 19 19 19 18 19 19 21 22 23 24 25 27 28 29 31 32 33 35 36 38 39 41 42 44 46 47 49 49 50 52 53 53 54 55 55 55 57
16 16 17 17 17 16 16 16 17 18 18 18 18 19 19 19 19 20 20 21 23 24 25 27 28 30 31 33 34 35 36 38 39 41 43 44 46 48 50 51 53 54 55 56 57 58 58 59 61
14 14 15 15 15 14 15 16 15 16 17 18 18 19 20 20 21 21 21 22 23 25 26 27 29 30 32 34 35 36 37 38 39 41 43 45 48 50 52 53 55 56 57 58 59 60 61 62 63
14 13 13 13 14 15 15 16 16 16 16 18 19 20 20 20 21 22 23 24 25 27 28 29 30 31 33 34 36 37 39 40 41 43 45 47 49 51 52 54 56 57 59 60 61 62 64 64 65
14 14 13 12 13 15 17 18 18 17 17 18 19 20 21 22 23 24 25 26 28 29 30 31 32 33 35 36 37 38 40 41 43 45 46 48 50 51 53 55 57 58 60 61 62 64 66 67 67
14 15 15 14 15 15 17 19 20 19 19 20 21 22 23 24 25 26 27 29 30 31 32 33 34 34 35 36 38 39 41 42 44 46 48 49 51 53 54 56 58 60 61 62 64 66 67 68 69
15 17 17 17 17 17 18 19 21 22 23 23 24 25 25 26 26 26 28 30 32 33 34 34 35 36 37 38 39 41 42 44 45 47 49 50 52 54 56 58 60 61 63 64 65 67 68 69 69
17 19 20 20 19 19 19 20 22 24 24 25 26 27 26 26 25 26 28 30 31 32 33 33 34 35 36 37 38 39 41 42 44 46 48 50 52 55 57 59 61 62 63 65 66 67 67 68 69
19 20 22 23 22 21 21 22 23 25 26 26 27 27 26 25 25 26 27 29 30 31 31 32 33 34 35 36 37 39 40 42 43 45 47 49 51 53 56 58 61 63 65 66 67 68 68 69 70
21 22 23 25 25 24 23 23 25 26 26 26 26 26 25 25 25 26 27 28 30 31 32 32 33 34 36 37 39 41 42 44 45 47 49 51 52 54 56 58 60 62 64 65 66 67 67 69 69
24 24 26 27 28 27 25 23 25 26 26 25 25 25 25 25 26 27 28 29 30 31 32 33 35 36 38 39 41 43 44 46 47 49 50 51 53 54 56 57 59 60 62 63 64 64 65 66 67
25 27 28 28 28 29 27 23 25 25 25 25 24 25 26 27 28 29 30 30 31 33 34 36 38 40 41 43 44 46 48 50 51 52 53 54 55 56 58 59 60 61 62 63 64 64 65 66 66
27 28 28 28 28 28 27 22 23 24 25 25 26 27 29 30 30 31 32 33 35 37 38 40 42 44 46 47 49 51 52 54 55 56 57 58 59 59 60 61 62 63 64 64 64 65 65 66 66
Wind_Direction
76 85 94 112 141 164 175 177 168 156 152 152 153 161 183 198 208 221 223 217 214 217 223 226 230 236 245 254 260 264 267 268 269 269 269 270 271 271 271 271 273 273 274 274 273 272 271 269 266
77 78 84 86 81 98 132 151 148 139 135 136 139 150 176 194 206 219 226 229 228 229 233 237 241 248 255 262 268 271 272 273 273 272 272 272 272 272 272 272 273 275 276 277 277 276 275 273 270
70 68 65 64 67 81 119 138 132 128 129 130 136 152 203 215 217 234 244 247 247 246 247 251 255 259 264 269 273 275 275 275 275 274 274 274 274 275 275 274 275 277 279 280 279 278 277 276 274
63 51 42 40 50 62 101 123 112 116 124 131 157 211 257 257 255 257 261 263 262 260 259 262 265 269 272 275 276 276 276 276 274 274 273 274 275 276 276 277 278 280 281 282 282 281 280 280 278
48 31 13 4 1 350 338 323 327 327 300 277 272 274 277 276 267 264 268 271 271 270 268 269 271 274 277 278 277 276 276 275 273 272 272 274 275 275 276 277 279 281 282 283 283 283 282 282 282
26 4 347 337 334 326 318 306 300 296 292 285 281 278 277 278 276 271 269 271 273 274 273 273 275 277 278 278 277 276 274 272 270 270 271 273 274 275 277 279 281 283 285 286 287 288 288 288 288
358 346 333 328 322 315 310 300 293 290 287 282 278 277 276 277 279 275 269 268 271 273 274 274 274 276 276 276 275 274 271 269 268 268 269 271 273 276 279 281 284 286 288 290 292 293 294 294 295
345 340 335 335 322 309 306 300 294 291 288 284 279 273 271 275 277 275 270 268 270 272 273 273 273 273 272 272 272 270 267 266 265 266 267 269 272 275 278 281 285 287 290 292 294 295 297 298 298
329 331 333 334 324 311 311 307 300 297 294 289 283 274 269 271 275 277 276 272 269 269 271 272 270 269 268 268 269 267 264 264 263 264 266 268 270 273 276 280 282 285 287 289 291 293 295 296 297
308 318 325 327 325 320 317 313 306 297 294 298 298 283 277 276 276 278 278 277 273 271 271 270 269 267 267 266 266 264 262 262 262 263 265 267 268 271 274 276 278 280 282 285 287 289 290 292 293
291 300 311 316 319 317 314 312 310 303 297 302 300 290 285 283 282 281 281 279 276 273 270 269 270 269 268 266 265 263 262 262 262 262 264 266 267 269 271 273 275 277 279 281 283 285 287 288 289
281 288 295 302 307 311 311 309 308 307 308 307 303 296 288 287 287 286 285 282 278 273 271 271 272 270 268 266 265 264 263 262 262 262 263 264 266 268 269 271 273 275 277 279 281 283 284 286 287
276 282 287 289 295 300 303 303 303 304 308 306 303 299 290 285 285 285 283 280 278 274 272 272 272 271 269 267 265 264 263 262 262 263 263 263 265 267 268 270 271 273 275 277 279 281 282 283 285
273 278 282 285 290 293 295 296 296 298 301 302 299 296 290 285 282 281 280 280 278 276 273 271 270 270 269 267 266 265 264 264 263 263 263 264 264 266 267 269 270 272 274 275 277 279 280 282 283
273 276 279 282 285 287 289 291 291 293 297 296 295 294 292 288 286 283 281 280 279 277 275 272 270 269 268 267 266 266 266 266 265 264 265 265 265 265 266 268 269 271 273 274 276 277 279 280 282
274 277 279 281 283 286 287 287 289 291 292 290 289 290 289 288 287 286 284 282 281 279 277 275 273 270 268 266 266 266 266 267 266 265 265 265 265 265 266 267 268 270 272 273 275 276 278 279 281
275 278 280 282 283 283 282 279 284 290 292 290 289 288 286 286 285 285 284 284 283 281 280 278 276 274 271 269 268 267 266 265 265 265 265 265 265 266 266 267 268 269 271 272 274 275 277 278 280
277 279 281 283 284 283 281 279 282 288 291 291 290 289 289 288 286 286 285 285 284 283 282 280 279 277 275 273 271 269 268 266 266 266 266 267 268 268 269 269 270 270 271 272 273 274 276 277 278
277 280 281 285 288 289 287 286 286 288 290 291 291 291 292 291 290 288 287 287 286 286 285 283 281 279 278 277 275 273 272 271 270 270 269 269 269 269 270 270 270 271 272 273 274 275 276 277 278
275 276 280 286 290 293 292 293 294 294 295 295 295 295 295 295 293 292 291 290 289 288 286 284 282 281 279 278 278 277 275 274 273 272 271 270 269 269 270 271 272 273 274 275 275 276 276 277 278
275 277 281 287 293 296 295 295 297 297 296 295 295 295 294 293 293 294 293 292 291 289 287 285 283 282 280 280 280 279 278 277 275 274 273 273 274 274 274 274 275 275 276 276 277 277 278 279 279
277 282 286 289 290 292 295 296 297 297 294 292 291 291 291 292 293 293 293 292 292 290 289 287 285 284 283 282 281 281 280 279 278 278 277 277 276 276 275 275 276 276 277 278 278 279 279 280 280
278 284 288 290 291 291 293 296 298 296 292 291 290 289 291 293 294 294 294 294 293 291 290 289 288 287 286 286 285 284 283 282 281 280 279 278 278 277 277 276 276 276 277 277 278 279 279 279 280
281 285 288 290 292 293 293 294 294 294 294 294 294 295 296 296 297 296 296 295 294 294 293 292 292 291 290 289 288 287 286 285 284 282 281 280 280 279 279 278 278 278 278 278 278 278 278 279 280
283 287 290 291 293 294 295 294 293 294 296 297 299 301 302 301 300 299 298 297 297 297 297 297 296 295 295 294 293 292 290 289 288 286 285 284 282 281 280 279 279 279 278 278 278 278 279 279 280
282 286 290 293 295 296 297 297 296 296 297 298 299 301 302 302 302 301 301 300 300 301 301 300 300 299 299 298 297 296 295 293 292 290 289 287 286 284 282 281 281 280 279 278 278 278 279 279 279
282 285 289 292 294 295 295 296 294 294 295 297 299 301 303 304 304 303 303 303 303 303 303 303 302 302 302 301 300 299 298 297 295 294 292 290 288 287 285 284 282 281 280 280 279 279 279 279 279
283 287 290 292 294 296 296 298 297 297 298 300 301 303 304 304 305 305 305 304 304 303 303 303 303 303 303 302 301 300 299 298 297 295 294 292 291 289 288 287 286 284 283 282 280 280 279 279 279
283 287 289 290 292 294 297 301 298 299 300 300 301 302 303 303 304 305 305 304 304 304 304 303 303 303 303 302 301 300 299 298 297 296 294 293 292 291 290 289 287 286 284 283 282 281 281 280 280
281 284 286 288 290 292 294 300 296 296 296 298 300 302 302 302 303 304 304 303 304 304 304 303 303 303 302 302 301 300 299 298 297 296 295 293 292 291 290 289 288 287 285 284 283 282 281 281 281
Height
5872 5872 5872 5873 5873 5873 5873 5873 5873 5872 5873 5874 5875 5875 5876 5877 5878 5879 5877 5876 5876 5876 5876 5876 5876 5876 5876 5876 5876 5876 5876 5876 5876 5876 5875 5875 5875 5875 5874 5874 5873 5873 5873 5873 5873 5872 5872 5873 5873
5873 5873 5874 5874 5873 5873 5874 5873 5873 5872 5872 5873 5874 5874 5875 5876 5876 5876 5875 5875 5875 5875 5875 5875 5875 5875 5875 5875 5875 5874 5874 5874 5874 5873 5873 5873 5873 5873 5872 5872 5872 5871 5871 5870 5870 5870 5870 5869 5869
5874 5874 5875 5875 5874 5874 5874 5873 5873 5872 5872 5873 5873 5874 5874 5875 5875 5875 5875 5875 5874 5874 5874 5874 5874 5873 5873 5873 5872 5872 5872 5872 5871 5871 5871 5871 5870 5870 5870 5870 5869 5869 5868 5868 5867 5867 5867 5866 5866
5876 5876 5876 5876 5875 5875 5875 5874 5873 5872 5872 5872 5873 5873 5873 5874 5874 5874 5874 5873 5873 5873 5873 5872 5872 5871 5871 5871 5870 5870 5869 5869 5869 5869 5868 5868 5868 5868 5867 5867 5867 5866 5865 5865 5864 5864 5863 5863 5862
5876 5876 5877 5876 5875 5875 5875 5874 5873 5872 5872 5872 5872 5872 5872 5872 5872 5872 5872 5871 5871 5871 5870 5870 5869 5869 5869 5868 5868 5867 5867 5867 5866 5866 5866 5866 5866 5865 5865 5864 5864 5863 5862 5862 5861 5860 5860 5859 5859
5877 5876 5876 5875 5874 5875 5874 5873 5872 5871 5871 5870 5870 5870 5870 5869 5870 5870 5870 5869 5868 5868 5867 5867 5867 5866 5866 5865 5865 5865 5864 5864 5864 5864 5864 5863 5863 5863 5862 5861 5861 5860 5859 5858 5858 5857 5856 5855 5855
5877 5875 5875 5874 5873 5873 5873 5872 5871 5870 5869 5869 5868 5868 5868 5867 5867 5867 5867 5866 5865 5864 5864 5864 5864 5863 5863 5862 5862 5862 5861 5861 5861 5861 5861 5860 5860 5859 5859 5858 5857 5857 5856 5855 5854 5853 5852 5851 5851
5875 5875 5874 5873 5872 5871 5870 5869 5868 5867 5866 5866 5866 5866 5865 5864 5863 5863 5864 5863 5862 5861 5860 5860 5860 5860 5859 5859 5858 5858 5858 5858 5858 5858 5857 5857 5857 5856 5855 5855 5854 5853 5852 5851 5850 5849 5848 5847 5846
5874 5875 5872 5872 5871 5869 5868 5867 5866 5865 5864 5863 5863 5862 5862 5860 5859 5859 5860 5860 5859 5858 5857 5856 5856 5856 5855 5855 5855 5855 5855 5855 5855 5854 5854 5854 5853 5852 5852 5851 5850 5849 5848 5847 5846 5845 5844 5843 5841
5873 5872 5871 5870 5869 5867 5865 5864 5863 5862 5861 5859 5860 5859 5858 5857 5856 5856 5856 5856 5855 5854 5853 5852 5852 5851 5851 5851 5851 5851 5851 5851 5851 5850 5850 5850 5849 5848 5848 5847 5846 5845 5844 5843 5842 5840 5839 5838 5837
5871 5870 5869 5868 5866 5865 5863 5862 5860 5859 5858 5857 5857 5856 5854 5853 5852 5852 5852 5851 5851 5851 5849 5848 5848 5847 5847 5847 5847 5847 5847 5846 5846 5846 5845 5845 5844 5844 5843 5842 5841 5840 5839 5838 5836 5835 5834 5832 5831
5868 5867 5866 5865 5864 5862 5861 5859 5858 5856 5856 5854 5853 5852 5851 5849 5848 5847 5847 5847 5847 5846 5845 5844 5843 5843 5843 5842 5842 5842 5842 5841 5841 5841 5840 5840 5839 5838 5837 5837 5835 5834 5833 5832 5831 5829 5828 5826 5825
5865 5864 5863 5862 5861 5859 5858 5856 5855 5853 5852 5850 5849 5848 5847 5846 5844 5843 5843 5842 5842 5841 5841 5840 5839 5838 5838 5837 5837 5837 5836 5835 5835 5835 5834 5834 5833 5832 5831 5830 5829 5828 5826 5825 5824 5822 5821 5819 5817
5861 5860 5859 5858 5857 5856 5854 5852 5851 5850 5849 5847 5845 5844 5843 5841 5840 5839 5838 5837 5836 5835 5835 5835 5834 5833 5832 5832 5831 5830 5830 5829 5829 5828 5828 5827 5826 5825 5824 5823 5822 5820 5819 5818 5816 5815 5813 5811 5809
5856 5856 5855 5853 5852 5851 5850 5847 5845 5845 5845 5843 5841 5839 5838 5836 5835 5833 5832 5831 5830 5829 5829 5828 5828 5827 5826 5825 5824 5823 5823 5822 5822 5821 5820 5819 5819 5817 5816 5815 5813 5811 5810 5809 5807 5806 5804 5802 5800
5851 5851 5850 5848 5847 5846 5846 5843 5839 5839 5840 5838 5836 5834 5833 5831 5830 5828 5827 5825 5824 5823 5822 5821 5821 5820 5819 5818 5817 5816 5815 5814 5814 5813 5811 5810 5809 5808 5807 5806 5804 5802 5800 5799 5798 5796 5794 5792 5790
5846 5845 5844 5843 5842 5841 5839 5838 5834 5833 5834 5833 5831 5830 5828 5827 5825 5823 5821 5820 5818 5817 5815 5814 5813 5812 5812 5811 5810 5809 5808 5807 5805 5804 5802 5801 5799 5798 5796 5796 5794 5792 5790 5789 5787 5785 5783 5781 5778
5841 5840 5838 5837 5836 5836 5834 5833 5830 5829 5828 5827 5826 5824 5823 5822 5821 5819 5816 5814 5812 5811 5809 5808 5806 5804 5803 5802 5802 5801 5800 5798 5797 5795 5793 5791 5789 5787 5786 5785 5783 5780 5779 5777 5775 5773 5771 5769 5766
5835 5835 5834 5832 5831 5830 5829 5828 5827 5825 5824 5822 5821 5819 5818 5817 5815 5813 5811 5809 5807 5805 5803 5801 5799 5797 5795 5794 5792 5791 5791 5790 5788 5787 5785 5782 5780 5777 5775 5773 5771 5768 5767 5765 5762 5760 5758 5756 5751
5831 5830 5829 5828 5826 5826 5824 5823 5822 5821 5819 5817 5816 5814 5813 5811 5809 5807 5805 5803 5801 5799 5797 5795 5793 5790 5788 5786 5784 5782 5781 5780 5778 5776 5774 5771 5769 5766 5764 5761 5759 5756 5754 5752 5750 5747 5744 5741 5738
5826 5826 5825 5825 5823 5821 5820 5819 5818 5816 5814 5812 5811 5809 5807 5805 5803 5801 5799 5797 5794 5792 5790 5787 5785 5783 5780 5778 5776 5773 5771 5769 5767 5764 5762 5760 5757 5755 5752 5750 5747 5744 5741 5739 5736 5732 5730 5727 5724
5822 5821 5821 5820 5819 5818 5817 5814 5813 5812 5810 5808 5806 5804 5801 5799 5797 5794 5792 5790 5787 5784 5782 5779 5777 5774 5771 5769 5766 5764 5761 5759 5756 5754 5751 5748 5746 5743 5740 5737 5734 5731 5728 5725 5722 5718 5715 5711 5709
5818 5817 5816 5816 5815 5814 5812 5810 5808 5806 5804 5802 5800 5798 5795 5793 5790 5787 5784 5782 5778 5775 5773 5770 5767 5765 5762 5760 5757 5754 5751 5749 5746 5743 5740 5736 5733 5730 5727 5724 5720 5717 5714 5711 5707 5703 5699 5696 5692
5813 5812 5812 5811 5810 5809 5807 5805 5802 5799 5797 5795 5793 5791 5788 5786 5783 5780 5777 5773 5769 5766 5764 5761 5758 5755 5753 5750 5747 5744 5740 5737 5734 5731 5727 5724 5721 5717 5713 5709 5706 5702 5699 5696 5691 5687 5683 5680 5676
5809 5808 5806 5805 5804 5804 5801 5799 5797 5793 5791 5788 5785 5783 5780 5778 5775 5772 5768 5765 5761 5758 5755 5752 5749 5746 5742 5739 5736 5732 5729 5725 5722 5718 5715 5711 5707 5703 5699 5694 5691 5687 5683 5679 5674 5670 5667 5663 5659
5803 5802 5801 5799 5798 5797 5795 5792 5791 5787 5784 5781 5779 5776 5773 5770 5767 5764 5760 5757 5753 5750 5747 5743 5740 5736 5733 5729 5725 5721 5717 5714 5710 5705 5701 5697 5693 5688 5683 5679 5674 5670 5666 5661 5657 5653 5650 5645 5641
5798 5796 5795 5793 5790 5789 5788 5786 5784 5780 5777 5774 5772 5769 5766 5763 5760 5756 5753 5749 5746 5742 5738 5735 5731 5727 5723 5719 5715 5710 5706 5702 5697 5693 5688 5683 5678 5673 5668 5663 5658 5653 5648 5644 5639 5635 5632 5627 5623
5791 5790 5789 5786 5783 5781 5781 5779 5776 5772 5770 5767 5764 5761 5758 5756 5752 5749 5746 5742 5738 5734 5730 5726 5722 5718 5714 5709 5705 5700 5694 5689 5684 5679 5674 5668 5663 5658 5652 5647 5641 5636 5631 5626 5621 5617 5613 5608 5605
5785 5784 5781 5779 5777 5774 5772 5775 5769 5765 5762 5760 5758 5755 5752 5749 5745 5741 5738 5734 5729 5726 5722 5717 5713 5708 5704 5699 5693 5688 5682 5677 5671 5665 5660 5654 5648 5642 5636 5630 5624 5619 5613 5608 5603 5599 5594 5590 5586
5778 5777 5774 5773 5770 5767 5765 5769 5762 5759 5755 5753 5751 5748 5744 5741 5737 5733 5729 5725 5721 5717 5712 5707 5702 5697 5692 5687 5681 5675 5669 5663 5657 5651 5644 5638 5632 5626 5619 5613 5607 5601 5595 5590 5584 5580 5575 5570 5566